ZHONGXING-1E

Last updated on Thu Sep 10 2026 00:03:01 GMT+0000 (Coordinated Universal Time)

1 53813U 22112A 26252.67302200 -.00000169 00000+0 00000+0 0 9990 2 53813 0.0203 110.5679 0002798 144.7939 56.9950 1.00269014 14696
UTC large
Height (km)
Speed (km/s)
/
Latitude / Longitude
Inclination (degrees)
Orbital Period (minutes)
Azimuth
Elevation
Range (km)
Doppler Factor

Next 0 passes for location: London (51.5072 / 0.1276)

No passes found over London.
ZHONGXING-1E